633  
SXUS52 KTAE 290319  
OSOTAE  
OSOTAE  
NORTH FLORIDA/SOUTH ALABAMA/SOUTHWEST GEORGIA WEATHER ROUNDUP  
NATIONAL WEATHER SERVICE TALLAHASSEE FLORIDA  
1100 PM EDT FRI APR 28 2017  
 
NOTE: "FAIR" INDICATES FEW OR NO CLOUDS BELOW 12,000 FEET WITH NO  
SIGNIFICANT WEATHER AND/OR OBSTRUCTIONS TO VISIBILITY.  
 
!FLZ017-115-028-034-025-290400   
..NORTH FLORIDA
 
 
 
CITY SKY/WX TMP DP RH WIND PRES REMARKS  
TALLAHASSEE MOCLDY 73 70 90 CALM 30.07R  
APALACHICOLA CLOUDY 75 75 100 SE5 30.05R  
PERRY CLEAR 75 71 88 CALM 30.08R  
CROSS CITY CLEAR 73 70 88 CALM 30.08R  
JACKSONVILLE PTCLDY 77 72 84 SE10 30.11R  

 
 
!FLZ112-006-005-002-011-290400   
..FLORIDA PANHANDLE
 
 
 
CITY SKY/WX TMP DP RH WIND PRES REMARKS  
MARIANNA PTCLDY 77 69 76 S5 30.06R  
BONIFAY NOT AVBL  
PANAMA CITY NW MOCLDY 74 72 93 CALM 30.05R FOG  
TYNDALL AFB PTCLDY 74 72 91 SE5 30.06R  
TYND DRONE APT FAIR 74 72 95 SE5 30.06S  
DE FUNIAK SPR CLOUDY 73 72 97 S5 30.07R  
EGLIN AFB CLOUDY 76 71 85 SE14 30.05R  
DESTIN CLOUDY 78 77 96 SE12 30.05R  
HURLBURT CLOUDY 76 69 79 SE8 30.03R  
CRESTVIEW CLOUDY 75 70 84 S5 30.07R  
PENSACOLA CLOUDY 77 72 84 SE15 30.03R  

 
 
!ALZ063-066-290400   
..SOUTH ALABAMA
 
 
 
CITY SKY/WX TMP DP RH WIND PRES REMARKS  
DOTHAN PTCLDY 76 69 79 SE6 30.10R  
OZARK CAIRNS PTCLDY 76 70 82 S3 30.06R  
FT RUCKER HELI PTCLDY 75 70 84 CALM 30.06R  
RUCKER HELI 3 FAIR 76 69 79 S5 30.05S  
RUCKER HELI 2 FAIR 77 69 78 CALM 30.06R  
FLORALA APT PTCLDY 73 70 90 S6 30.08R  
ANDALUSIA MOCLDY 77 70 79 S3 30.05R  
TROY CLEAR 73 70 90 SE5 30.06R  
EUFALA FAIR 78 70 76 SE3 30.05R  
MOBILE CLOUDY 77 73 87 SE18 30.01R  

 
 
!GAZ120>161-290400   
..SOUTHWEST AND SOUTH CENTRAL GEORGIA
 
 
 
CITY SKY/WX TMP DP RH WIND PRES REMARKS  
THOMASVILLE FAIR 73 70 88 CALM 30.09R  
BAINBRIDGE PTCLDY 77 68 73 S5 30.07R  
MOODY AFB CLEAR 76 64 66 CALM 30.07R  
VALDOSTA CLEAR 72 66 81 CALM 30.07S  
MOULTRIE CLOUDY 73 64 73 CALM 30.09R  
BLAKELY CLOUDY 77 68 73 CALM 30.08R  
ALBANY MOCLDY 75 67 76 CALM 30.09R  
TIFTON FAIR 73 65 77 CALM 30.08S  
FITZGERALD CLOUDY 73 69 88 CALM 30.11R  
CORDELE FAIR 76 69 78 CALM 30.09S  
AMERICUS FAIR 72 64 78 CALM 30.10S  
HOMERVILLE MOCLDY 81 73 78 SE5 30.10S  

 
 
!GMZ750-755-770-775-290400   
..COASTAL AND BUOY OBS
 
 
 
STATION/POSITION TIME TEMP WIND PRES VSBY WAVE  
AIR SEA DIR/SP/G HT/PER  
(UTC) (F) (DEG/KT/KT) (MB) (MI) (FT/S)  
KEATON BEACH 0300 75 40/ 2/ 3 1018.0R  
CEDAR KEY 0300 79 40/ 4/ 4 1019.2R  
C TOWER 0300 72 50/ 4/ 5 1018.5R  
APALACHICOLA BUO 0250 74 74 110/ 4/ 4 1017.8R 3/ 6  
PANAMA CITY BUOY 0250 75 75 130/ 10/ 12 1016.8R 3/ 6  
MOBILE BUOY 0300 77 76 130/ 17/ 23 1015.1  
ORANGE BCH AL BU 0250 76 75 120/ 16/ 19 1015.9R 4/ 7  

 
 
 
CLICK HERE TO GO TO PREVIOUS BULLETINS.

The Nexlab FL Page
The Nexlab GA Page
The Nexlab AL Page Main Text Page